Regional Weather Roundup
Issued by NWS State College, PA

Home | Current Version | Previous Version | Text Only | Print | Product List | Glossary Off
Versions: 1 2 3 4 5 6 7 8 9 10 11 12 13 14 15 16 17 18 19 20 21 22 23 24 25 26 27 28 29 30 31 32 33 34 35 36 37 38 39 40 41 42 43 44 45 46 47 48 49 50

795
ASUS41 KCTP 301303
RWRCTP

REGIONAL WEATHER ROUNDUP
NATIONAL WEATHER SERVICE STATE COLLEGE PA
900 AM EDT FRI SEP 30 2016

Note: "fair" indicates few or no clouds below 12,000 feet with no
significant weather and/or obstructions to visibility.

* = STATION THAT DOES NOT REPORT PRECIPITATION /E.G. RAIN...SNOW...ETC/
    THUNDER OR FOG.

PAZ002>004-007>009-013>016-020>023-029>032-301400-
WESTERN PENNSYLVANIA

CITY           SKY/WX    TMP DP  RH WIND       PRES   REMARKS
ERIE           LGT RAIN  58  56  93 NE9       30.22F FOG
MEADVILLE      CLOUDY    55  52  89 E8        30.20F
FRANKLIN*        N/A     54  52  94 E8        30.22S
NEW CASTLE     CLOUDY    57  56  96 E10       30.19F
BEAVER COUNTY  CLOUDY    55  54  94 E6        30.15
BUTLER*        CLOUDY    55  52  88 NE12      30.20F
PITTSBURGH INT CLOUDY    58  56  93 E12       30.16S
PITTSBURGH     CLOUDY    58  53  84 NE6       30.15F
INDIANA*       CLOUDY    57  54  88 E12G18    30.22S
LATROBE        PTSUNNY   59  54  82 E9        30.17S
WASHINGTON CO* CLOUDY    57  54  88 NE9       30.15S
$$

PAZ004>006-010>012-017>019-024>028-033>037-041-042-045-046-049>053-301400-
CENTRAL PENNSYLVANIA

CITY           SKY/WX    TMP DP  RH WIND       PRES   REMARKS
BRADFORD       CLOUDY    53  53 100 E10       30.27S
DUBOIS         CLOUDY    53  50  89 E13       30.22S
CLEARFIELD     CLOUDY    52  52 100 E12       30.26S
JOHNSTOWN      CLOUDY    52  52 100 E9G20     30.19F
ALTOONA        LGT RAIN  53  53 100 NE7       30.24F FOG
STATE COLLEGE  CLOUDY    52  52 100 NE10      30.27R
WILLIAMSPORT   CLOUDY    54  53  97 CALM      30.28S
SELINSGROVE    RAIN      54  54 100 N7        30.29R FOG
FT INDIANTOWN  LGT RAIN  53  52  99 NE7       30.26S
CAPITAL CITY   LGT RAIN  55  51  86 E12       30.26R
HARRISBURG     LGT RAIN  55  53  93 E12       30.25R
YORK           LGT RAIN  54  54 100 E12       30.24S FOG
$$

PAZ038>040-043-044-047-048-054-055-060>062-067>071-301400-
EASTERN PENNSYLVANIA

CITY           SKY/WX    TMP DP  RH WIND       PRES   REMARKS
SCRANTON       RAIN      50  48  93 NE7       30.32R FOG
MOUNT POCONO   HVY RAIN  47  45  93 E15G26    30.32R FOG
ALLENTOWN      LGT RAIN  53  49  86 E16G25    30.29S
QUAKERTOWN*    CLOUDY    54  52  94 NE8       30.28S
READING        LGT RAIN  53  50  89 NE9       30.25S
LANCASTER      LGT RAIN  55  55 100 E15       30.24S FOG
COATESVILLE    CLOUDY    54  54 100 NE12G23   30.23F
POTTSTOWN      HVY RAIN  53  52  96 NE12G20   30.28R FOG
BLUE BELL      CLOUDY    52  52 100 NE7       30.25F
DOYLESTOWN     LGT RAIN  54  53  97 NE10      30.26S
WILLOW GROVE   NOT AVBL
NORTH PHILA    RAIN      58  56  93 NE16      30.26S FOG
PHILADELPHIA   LGT RAIN  58  56  93 NE15      30.23R
$$




USA.gov is the U.S. government's official web portal to all federal, state and local government web resources and services.